This is the latest recevied weather packets stored in our database for station/object W8XLR-2. If no packets are shown the sender has not sent any weather packets the latest 10 day(s).
| Time | Temp. | Humidity | Pressure | Rain* | Wind** | Luminosity | Snow |
|---|---|---|---|---|---|---|---|
| 1777654609 | 6.11° C | 93% | 1014.6 hPa | 2.29 mm | - | - | - |
| 1777654008 | 6.11° C | 93% | 1014.6 hPa | 2.29 mm | - | - | - |
| 1777653414 | 6.11° C | 92% | 1014.8 hPa | 2.03 mm | - | - | - |
| 1777652848 | 6.67° C | 92% | 1015 hPa | 1.52 mm | - | - | - |
| 1777652809 | 6.67° C | 92% | 1015 hPa | 1.52 mm | - | - | - |
| 1777652209 | 6.67° C | 92% | 1015 hPa | 1.52 mm | - | - | - |
| 1777651609 | 6.11° C | 92% | 1015.1 hPa | 1.52 mm | - | - | - |
| 1777651010 | 6.11° C | 92% | 1015.2 hPa | 1.78 mm | - | - | - |
| 1777650426 | 6.11° C | 92% | 1015.2 hPa | 1.78 mm | - | - | - |
| 1777649864 | 6.11° C | 91% | 1015.2 hPa | 1.52 mm | - | - | - |
| 1777649810 | 6.11° C | 91% | 1015.2 hPa | 1.52 mm | - | - | - |
| 1777649212 | 6.11° C | 90% | 1015.4 hPa | 1.52 mm | - | - | - |
| 1777648806 | 6.11° C | 90% | 1015.4 hPa | 1.52 mm | - | - | - |
| 1777648609 | 6.11° C | 90% | 1015.4 hPa | 1.52 mm | - | - | - |
| 1777648010 | 6.11° C | 90% | 1015.5 hPa | 1.27 mm | - | - | - |
| 1777647466 | 6.67° C | 88% | 1015.4 hPa | 0.76 mm | - | - | - |
| 1777647408 | 6.67° C | 88% | 1015.4 hPa | 0.76 mm | - | - | - |
| 1777646809 | 6.67° C | 88% | 1015.4 hPa | 0.76 mm | - | - | - |
| 1777646209 | 6.67° C | 88% | 1015.4 hPa | 0.51 mm | - | - | - |
| 1777645614 | 6.67° C | 86% | 1015.3 hPa | 0.25 mm | - | - | - |
| 1777645092 | 6.67° C | 86% | 1015.3 hPa | 0.25 mm | - | - | - |
| 1777645057 | 6.67° C | 86% | 1015.3 hPa | 0.25 mm | - | - | - |
| 1777645009 | 6.67° C | 86% | 1015.3 hPa | 0.25 mm | - | - | - |
| 1777644412 | 6.67° C | 84% | 1015.2 hPa | 0 mm | - | - | - |
| 1777643809 | 6.67° C | 84% | 1015.1 hPa | 0 mm | - | - | - |
* Rain latest hour (hover to see other rain measurements)
** Current wind speed in m/s (hover to see current wind gust speed)